This is the latest recevied weather packets stored in our database for station/object 4S6DRJ-13. If no packets are shown the sender has not sent any weather packets the latest 10 day(s).
| Time | Temp. | Humidity | Pressure | Rain* | Wind** | Luminosity | Snow |
|---|---|---|---|---|---|---|---|
| 1788179454 | 28.89° C | 79% | 1007.5 hPa | 0 mm | 1.34 m/s, 230° | 30 W/m² | - |
| 1788179402 | 28.89° C | 79% | 1007.5 hPa | 0 mm | 2.24 m/s, 232° | 28 W/m² | - |
| 1788179332 | 28.89° C | 79% | 1007.4 hPa | 0 mm | 1.79 m/s, 226° | 28 W/m² | - |
| 1788179271 | 28.89° C | 79% | 1007.6 hPa | 0 mm | 1.79 m/s, 235° | 29 W/m² | - |
| 1788179210 | 28.89° C | 79% | 1007.6 hPa | 0 mm | 2.68 m/s, 227° | 31 W/m² | - |
| 1788179149 | 28.89° C | 79% | 1007.6 hPa | 0 mm | 1.79 m/s, 252° | 34 W/m² | - |
| 1788179088 | 28.89° C | 79% | 1007.4 hPa | 0 mm | 0.89 m/s, 349° | 40 W/m² | - |
| 1788179027 | 28.89° C | 78% | 1007.4 hPa | 0 mm | 2.68 m/s, 252° | 43 W/m² | - |
| 1788178966 | 29.44° C | 79% | 1007.5 hPa | 0 mm | 2.68 m/s, 239° | 41 W/m² | - |
| 1788178905 | 29.44° C | 78% | 1007.6 hPa | 0 mm | 2.68 m/s, 222° | 36 W/m² | - |
| 1788178844 | 29.44° C | 78% | 1007.5 hPa | 0 mm | 0.89 m/s, 70° | 34 W/m² | - |
| 1788178783 | 29.44° C | 78% | 1007.5 hPa | 0 mm | 3.13 m/s, 240° | 35 W/m² | - |
| 1788178722 | 29.44° C | 78% | 1007.7 hPa | 0 mm | 1.79 m/s, 227° | 37 W/m² | - |
| 1788178661 | 29.44° C | 79% | 1007.6 hPa | 0 mm | 0.89 m/s, 275° | 39 W/m² | - |
| 1788178600 | 29.44° C | 79% | 1007.5 hPa | 0 mm | 0.89 m/s, 188° | 40 W/m² | - |
| 1788178539 | 29.44° C | 79% | 1007.5 hPa | 0 mm | 1.79 m/s, 269° | 47 W/m² | - |
| 1788178478 | 29.44° C | 79% | 1007.5 hPa | 0 mm | 1.79 m/s, 218° | 51 W/m² | - |
| 1788178417 | 29.44° C | 79% | 1007.5 hPa | 0 mm | 1.79 m/s, 236° | 54 W/m² | - |
| 1788178356 | 29.44° C | 79% | 1007.4 hPa | 0 mm | 1.34 m/s, 244° | 53 W/m² | - |
| 1788178295 | 29.44° C | 79% | 1007.4 hPa | 0 mm | 0.89 m/s, 245° | 57 W/m² | - |
| 1788178234 | 29.44° C | 79% | 1007.4 hPa | 0 mm | 2.24 m/s, 229° | 64 W/m² | - |
| 1788178173 | 29.44° C | 78% | 1007.4 hPa | 0 mm | 1.79 m/s, 222° | 68 W/m² | - |
| 1788178112 | 29.44° C | 78% | 1007.3 hPa | 0 mm | 0.89 m/s, 249° | 68 W/m² | - |
| 1788178051 | 29.44° C | 79% | 1007.4 hPa | 0 mm | 0.45 m/s, 313° | 69 W/m² | - |
| 1788177990 | 29.44° C | 78% | 1007.2 hPa | 0 mm | 1.79 m/s, 2° | 64 W/m² | - |
* Rain latest hour (hover to see other rain measurements)
** Current wind speed in m/s (hover to see current wind gust speed)